Weather History for KSPI - November, 2012

Change the Weather History Date:

Friday, November 9, 2012

  Actual Average Record
Temperature  
Mean Temperature 56 °F 46 °F  
Max Temperature 68 °F 56 °F 76 °F (1975)
Min Temperature 43 °F 37 °F 9 °F (1991)
Degree Days  
Heating Degree Days 9 19  
Month to date heating degree days 195 153  
Since 1 July heating degree days 637 563  
Cooling Degree Days 0 0  
Month to date cooling degree days 0 0  
Year to date cooling degree days 1533 1121  
Growing Degree Days 4 (Base 50)    
Moisture  
Dew Point 46 °F    
Average Humidity 67    
Maximum Humidity 82    
Minimum Humidity 52    
Precipitation  
Precipitation 0.00 in 0.10 in 1.51 in (1942)
Month to date precipitation 0.24 0.93  
Year to date precipitation 25.89 32.63  
Snow  
Snow 0.00 in 0.10 in 0.30 in (1968)
Month to date snowfall 0.0 0.1  
Since 1 July snowfall 0.0 0.1  
Since 1 September snowfall 0.0 0.1  
Snow Depth 0.00 in    
Sea Level Pressure  
Sea Level Pressure 30.00 in    
Wind  
Wind Speed 10 mph (South)    
Max Wind Speed 21 mph    
Max Gust Speed 29 mph    
Visibility 10 miles    
Events      
T = Trace of Precipitation, MM = Missing Value Source: NWS Daily Summary

Daily Weather History Graph

Daily Weather History Graph

Search for Another Location

Airport or City:

Trip Planner

Search our weather history database for the weather conditions in past years. The results will help you decide how hot, cold, wet, or windy it might be!

Date:

Astronomy

Nov. 09, 2012 Rise Set
Actual Time 6:37 AM CST 4:47 PM CST
Civil Twilight 6:08 AM CST 5:16 PM CST
Nautical Twilight 5:36 AM CST 5:48 PM CST
Astronomical Twilight 5:04 AM CST 6:20 PM CST
Moon 1:36 AM CST (11/9) 2:00 PM CST (11/9)
Length of Visible Light 11h 07m
Length of Day
10h 10m
Waning Crescent, 23% of the Moon is Illuminated
Nov 9
Waning Crescent
Nov 13
New
Nov 20
First Quarter
Nov 28
Full
Dec 6
Last Quarter

Hourly Weather History & Observations

Time (CST) Temp. Windchill Dew Point Humidity Pressure Visibility Wind Dir Wind Speed Gust Speed Precip Events Conditions
12:52 AM 43.0 °F 38.8 °F 37.0 °F 80% 30.08 in 10.0 mi SSE 6.9 mph - N/A   Clear
1:52 AM 44.1 °F 38.6 °F 37.9 °F 79% 30.06 in 10.0 mi South 10.4 mph - N/A   Clear
2:52 AM 44.1 °F 39.5 °F 37.9 °F 79% 30.07 in 10.0 mi South 8.1 mph - N/A   Clear
3:52 AM 44.1 °F 39.5 °F 37.0 °F 76% 30.06 in 10.0 mi SSE 8.1 mph - N/A   Clear
4:52 AM 44.1 °F 40.1 °F 37.0 °F 76% 30.07 in 10.0 mi SSE 6.9 mph - N/A   Clear
5:52 AM 45.0 °F 41.2 °F 37.9 °F 76% 30.07 in 10.0 mi SSE 6.9 mph - N/A   Overcast
6:52 AM 46.0 °F 41.4 °F 39.0 °F 76% 30.07 in 10.0 mi SSE 9.2 mph - N/A   Mostly Cloudy
7:52 AM 46.9 °F - 39.0 °F 74% 30.07 in 10.0 mi SSE 9.2 mph - N/A   Mostly Cloudy
8:52 AM 50.0 °F - 41.0 °F 71% 30.06 in 10.0 mi South 9.2 mph - N/A   Overcast
9:52 AM 55.0 °F - 43.0 °F 64% 30.05 in 10.0 mi South 8.1 mph - N/A   Clear
10:52 AM 60.1 °F - 45.0 °F 57% 30.03 in 10.0 mi South 12.7 mph 17.3 mph N/A   Clear
11:52 AM 64.0 °F - 48.0 °F 56% 29.99 in 10.0 mi South 8.1 mph - N/A   Clear
12:52 PM 66.9 °F - 48.9 °F 52% 29.96 in 10.0 mi South 9.2 mph - N/A   Clear
1:52 PM 66.9 °F - 50.0 °F 54% 29.94 in 10.0 mi South 12.7 mph - N/A   Clear
2:52 PM 66.0 °F - 50.0 °F 56% 29.94 in 10.0 mi SSE 9.2 mph - N/A   Clear
3:52 PM 64.9 °F - 51.1 °F 61% 29.93 in 10.0 mi South 9.2 mph - N/A   Clear
4:52 PM 63.0 °F - 51.1 °F 65% 29.93 in 10.0 mi South 9.2 mph - N/A   Clear
5:52 PM 62.1 °F - 51.1 °F 67% 29.94 in 10.0 mi SSE 10.4 mph - N/A   Clear
6:52 PM 61.0 °F - 51.1 °F 70% 29.93 in 10.0 mi South 11.5 mph - N/A   Clear
7:52 PM 63.0 °F - 52.0 °F 67% 29.92 in 10.0 mi South 16.1 mph 21.9 mph N/A   Clear
8:52 PM 62.1 °F - 53.1 °F 72% 29.92 in 10.0 mi South 13.8 mph - N/A   Clear
9:52 PM 63.0 °F - 53.1 °F 70% 29.94 in 10.0 mi South 19.6 mph 28.8 mph N/A   Clear
10:52 PM 61.0 °F - 53.1 °F 75% 29.95 in 10.0 mi SSW 15.0 mph - N/A   Clear
11:52 PM 61.0 °F - 53.1 °F 75% 29.97 in 10.0 mi SSW 11.5 mph - N/A   Clear